Airfield :
LOGIN :

Register | Disclaimer

   EN    FR    IT 

 










Legend :    VFR   Marginal VFR   IFR   Intensive IFR   Very Intensive IFR
Visi :
Ceiling :
>= 8 km
>= 3000ft
5 to 8 km
1000 to 3000 ft
1500m to 5 km
500 to 1000 ft
800 to 1500m
200 to 500 ft
< 800m
< 200 ft
Symbols :   Thunderstorms  Fog  Heavy snow  Heavy precipitations  Wind > 20 kt
SIGMETs :     Misc.  Thunderstorms  Icing  Turbulence  Mountain Waves  Volcanic Ashes







- Airport Elevation : 209 ft
- IATA code : CLY
- Download approach charts


LFKC - Calvi

CURRENT METAR :
  • 182300Z AUTO 17004KT CAVOK 06/04 Q1017

EXPIRED METARs :
  • 182230Z AUTO 20006KT CAVOK 08/06 Q1017
  • 182200Z AUTO 17005KT CAVOK 07/05 Q1017
  • 182130Z AUTO 19003KT CAVOK 08/05 Q1017
  • 182100Z AUTO 19003KT CAVOK 08/06 Q1017
  • 182030Z AUTO 20005KT CAVOK 08/06 Q1017

TAF TAF LFKC
Valid from the 18 at 15:00 until the 19 at 15:00 UTC


181400Z 1815/1915 35010KT CAVOK
BECMG 1817/1818 18006KT TX18/1913Z TN07/1900Z
ATIS : +33 4 95 65 82 49
No reported NOTAMs for that airfield.



MET'MAP, your aeronautical weather chart ! - Copyright ORBIFLY December 2007 - Disclaimer

ORBIFLY MET'MAP TEAM :

Programming & Development : Alexandra Zaïnal
Concept & Development : Baudouin d'Aumeries
Co-Development & Prog : Marc-Olivier Méhu
Technical & hardware support : Manuel Goepfert

Contact : metmap@orbifly.com




SOURCES & CREDITS :

   NOAA